[[{"header":{"parameterUnit":"m.s-1","parameterCategory":1,"la1":30.2991,"la2":30.254,"lo1":-89.0895,"lo2":-89.0444,"dy":0.0017,"dx":0.0017,"nx":28,"ny":28,"refTime":"2024-06-05T03:00:00:Z","depth":0,"parameterNumber":2,"parameterNumberName":"U-component_of_WINDS"},"data":[0,0,0,0,0,0,0,0,0,0,0,0,0,0,0,0,0,0,0,0,0,0,0,0,0,0,0,0,0,0,0,0,0,0,0,0,0,0,0,0,0,0,0,0,0,0,0,0,0,0,0,0,0,0,0,0,0,0,1.1566,1.1567,0,1.1613,1.1614,1.1614,1.159,1.1589,1.1588,1.1587,1.1645,1.1648,1.165,0,0,0,0,0,0,0,0,0,0,0,0,0,1.1466,1.1468,1.1566,1.1567,1.1567,1.1613,1.1614,1.1614,1.1591,1.1589,1.1588,1.1586,1.1644,1.1647,1.1651,0,0,0,0,0,0,0,0,0,0,0,0,0,1.1511,1.1468,1.1566,1.1561,1.1561,1.1613,1.1614,1.1615,1.1591,1.1589,1.1587,1.1585,1.1643,1.1647,1.1651,1.1714,0,0,1.1664,1.1665,0,0,0,0,0,0,0,0,1.1508,1.1515,1.1561,1.1561,1.1561,1.1594,1.16,1.1648,1.1591,1.158,1.1587,1.1584,1.163,1.1635,1.1649,1.1717,1.172,1.1664,1.1667,1.1668,1.1669,0,0,0,0,0,0,0,1.1505,1.1513,1.1585,1.1562,1.1562,1.1559,1.1564,1.1609,1.1616,1.1581,1.1579,1.1584,1.163,1.1645,1.165,1.172,1.1664,1.1668,1.167,1.1672,1.1845,1.1847,0,0,0,0,0,0,1.1501,1.151,1.1584,1.1586,1.1529,1.1563,1.1567,1.1585,1.1615,1.1617,1.1586,1.1583,1.1639,1.1645,1.1652,1.1728,1.1668,1.1672,1.1674,1.1842,1.1845,1.1847,0,0,0,0,0,0,1.1499,1.1508,1.1582,1.1548,1.1557,1.1566,1.1587,1.1587,1.1602,1.1619,1.1621,1.1599,1.1637,1.1646,1.1698,1.173,1.1674,1.1678,1.184,1.1843,1.1846,1.1881,0,0,0,0,0,0,1.1496,1.1507,1.1529,1.1548,1.1559,1.1625,1.1589,1.159,1.1608,1.1604,1.1631,1.1634,1.1637,1.1692,1.1703,1.1734,1.1681,1.1837,1.1841,1.1845,1.1877,1.1885,1.1892,0,0,0,0,0,1.1493,1.1539,1.153,1.1539,1.1586,1.1626,1.1633,1.1632,1.161,1.1634,1.1645,1.1633,1.1724,1.1698,1.1709,1.1743,1.1835,1.184,1.1845,1.1874,1.1883,1.1892,0,0,0,0,0,0,1.1527,1.1541,1.1532,1.1585,1.1604,1.1622,1.1652,1.1642,1.167,1.1666,1.1667,1.1673,1.1728,1.1741,1.1711,1.1806,1.1777,1.1784,1.1795,1.1805,1.1812,1.1808,1.1684,0,0,0,0,0,1.154,1.1568,1.1581,1.1627,1.1637,1.1643,1.1661,1.1658,1.1679,1.1688,1.1703,1.1727,1.1761,1.1783,1.1816,1.1879,1.1885,1.1908,1.1915,1.1921,1.1928,1.1963,1.1973,1.1863,1.1863,1.1863,0,0,1.1568,1.158,1.1599,1.1634,1.1649,1.1681,1.165,1.1686,1.1711,1.1695,1.1744,1.1756,1.1783,1.1841,1.1867,1.1854,1.1959,1.1927,1.1931,1.1935,1.1969,1.1979,1.1989,1.1866,1.1866,1.1865,0,0,1.1637,1.1648,1.1687,1.1702,1.1723,1.1726,1.1736,1.1755,1.1761,1.181,1.1799,1.1831,1.1889,1.1908,1.1926,1.2002,1.1993,1.2013,1.2052,1.2086,1.2095,1.2103,1.2131,1.2141,1.202,1.202,1.202,0,1.167,1.1716,1.171,1.1746,1.1763,1.1746,1.1788,1.1803,1.1836,1.1849,1.1832,1.1905,1.1922,1.1985,1.2003,1.2018,1.2031,1.201,1.2093,1.2101,1.2108,1.2135,1.2146,1.2022,1.2022,1.2021,1.2021,0,1.1757,1.1788,1.1818,1.1846,1.1866,1.1906,1.1908,1.193,1.1926,1.1932,1.1984,1.2003,1.2039,1.2054,1.2051,1.2117,1.2108,1.2092,1.2063,1.2121,1.2146,1.2157,1.2025,1.2024,1.2024,1.2023,0,0,1.1848,1.1871,1.1882,1.1894,1.1917,1.1943,1.1982,1.2014,1.2034,1.2057,1.2091,1.2141,1.2126,1.2147,1.2146,1.2177,1.2236,1.2158,1.2158,1.2172,1.2311,1.2323,1.2335,1.223,1.2232,1.2234,1.2309,0,1.1918,1.1983,1.1979,1.2041,1.2072,1.2056,1.2091,1.211,1.2117,1.2147,1.2157,1.2191,1.2169,1.2181,1.221,1.2223,1.2265,1.2217,1.2265,1.2267,1.2259,1.2348,1.236,1.243,1.2319,1.2321,1.2322,0,1.2008,1.2031,1.2095,1.2113,1.2126,1.2156,1.2185,1.2213,1.2236,1.2239,1.2261,1.2256,1.2299,1.2268,1.2329,1.2296,1.2316,1.2325,1.2328,1.2333,1.2298,1.2356,1.2453,1.2463,1.2337,1.2336,1.2335,0,1.2069,1.2116,1.2161,1.2172,1.2194,1.2216,1.2226,1.2246,1.2266,1.2293,1.2306,1.2339,1.2357,1.2384,1.2389,1.2366,1.2451,1.242,1.2457,1.2457,1.2476,1.2475,1.2578,1.2488,1.2488,1.2488,1.2487,0,1.2148,1.2189,1.2188,1.2216,1.2261,1.2258,1.2304,1.2313,1.2331,1.2362,1.2353,1.2383,1.2387,1.242,1.2425,1.2475,1.2484,1.2489,1.249,1.249,1.249,1.2504,1.2499,1.249,1.249,1.2489,1.2489,0,1.2224,1.2225,1.2272,1.2288,1.2293,1.2326,1.2341,1.2369,1.2375,1.2415,1.2424,1.2435,1.2473,1.248,1.2526,1.2529,1.2589,1.2585,1.258,1.258,1.2616,1.2613,1.2732,1.2748,1.2648,1.2648,1.2649,0,1.2274,1.2304,1.2322,1.2341,1.2352,1.2382,1.2401,1.24,1.2421,1.2449,1.2474,1.251,1.2538,1.26,1.2614,1.2649,1.2646,1.2686,1.2652,1.2651,1.2648,1.2646,1.2649,1.2692,1.2693,1.2694,1.2695,0,1.2363,1.2362,1.2388,1.2415,1.2437,1.2459,1.248,1.2496,1.2498,1.2523,1.2559,1.2581,1.2626,1.2663,1.2698,1.2713,1.2705,1.2705,1.2716,1.2717,1.2713,1.2716,1.2598,1.2703,1.2702,1.2701,1.2701,1.2701,1.2428,1.2454,1.2471,1.2501,1.2515,1.2535,1.2561,1.257,1.2599,1.2633,1.2632,1.2672,1.2696,1.2741,1.2758,1.2792,1.278,1.2795,1.2799,1.2803,1.2806,1.2706,1.2799,1.2798,1.2798,1.2798,1.2798,0,1.2517,1.2527,1.2554,1.2581,1.2606,1.2593,1.2616,1.2638,1.2672,1.2693,1.272,1.2763,1.2799,1.2815,1.2851,1.2875,1.2873,1.2885,1.2883,1.2887,1.2815,1.2802,1.2886,1.2886,1.2886,1.2886,1.2886,1.2886,1.2566,1.2609,1.2611,1.2662,1.2673,1.271,1.2724,1.2743,1.2759,1.2806,1.2834,1.2843,1.2863,1.29,1.2933,1.2938,1.2952,1.2966,1.2968,1.2901,1.2892,1.2883,1.2872,1.2969,1.2969,1.3038,1.3038,1.3039]},{"header":{"parameterUnit":"m.s-1","parameterCategory":1,"la1":30.2991,"la2":30.254,"lo1":-89.0895,"lo2":-89.0444,"dy":0.0017,"dx":0.0017,"nx":28,"ny":28,"refTime":"2024-06-05T03:00:00:Z","depth":0,"parameterNumber":3,"parameterNumberName":"V-component_of_WINDS"},"data":[0,0,0,0,0,0,0,0,0,0,0,0,0,0,0,0,0,0,0,0,0,0,0,0,0,0,0,0,0,0,0,0,0,0,0,0,0,0,0,0,0,0,0,0,0,0,0,0,0,0,0,0,0,0,0,0,0,0,3.2275,3.2276,0,3.2335,3.2336,3.2337,3.2316,3.2314,3.2313,3.2312,3.2366,3.2369,3.2371,0,0,0,0,0,0,0,0,0,0,0,0,0,3.2132,3.2134,3.2275,3.2276,3.2276,3.2335,3.2336,3.2337,3.2316,3.2314,3.2313,3.2311,3.2365,3.2368,3.2372,0,0,0,0,0,0,0,0,0,0,0,0,0,3.2193,3.2135,3.2275,3.2273,3.2274,3.2335,3.2336,3.2337,3.2316,3.2314,3.2312,3.231,3.2364,3.2368,3.2372,3.2436,0,0,3.2384,3.2386,0,0,0,0,0,0,0,0,3.2189,3.2198,3.2273,3.2273,3.2274,3.2316,3.2305,3.237,3.2317,3.23,3.2312,3.2309,3.2351,3.2356,3.2371,3.2439,3.2441,3.2385,3.2387,3.2389,3.239,0,0,0,0,0,0,0,3.2185,3.2195,3.2298,3.2274,3.2275,3.2266,3.2273,3.2318,3.2335,3.2301,3.23,3.2308,3.2351,3.2367,3.2372,3.2442,3.2385,3.2388,3.2391,3.2392,3.2561,3.2563,0,0,0,0,0,0,3.2182,3.2192,3.2297,3.23,3.2226,3.227,3.2278,3.2304,3.2335,3.2338,3.2309,3.2306,3.2361,3.2367,3.2374,3.2448,3.2389,3.2393,3.2395,3.2559,3.2562,3.2564,0,0,0,0,0,0,3.2179,3.2191,3.2294,3.2246,3.2258,3.2275,3.2305,3.2307,3.2323,3.2341,3.2343,3.2324,3.236,3.2368,3.2421,3.245,3.2394,3.2398,3.2557,3.256,3.2563,3.2599,0,0,0,0,0,0,3.2175,3.219,3.2218,3.2247,3.2261,3.2343,3.2307,3.2309,3.2331,3.2328,3.2355,3.2358,3.2359,3.2415,3.2425,3.2454,3.2401,3.2554,3.2558,3.2562,3.2595,3.2603,3.2609,0,0,0,0,0,3.217,3.2224,3.2219,3.2232,3.2296,3.2344,3.2352,3.2355,3.2334,3.2359,3.237,3.2357,3.2446,3.242,3.2431,3.2462,3.2552,3.2557,3.2561,3.2592,3.2601,3.2609,0,0,0,0,0,0,3.2196,3.2228,3.2223,3.2289,3.2314,3.2341,3.2373,3.2366,3.2396,3.2391,3.2391,3.2397,3.245,3.2462,3.2433,3.2524,3.2495,3.2502,3.2514,3.2524,3.2531,3.2525,3.2405,0,0,0,0,0,3.221,3.225,3.2275,3.2331,3.2344,3.2357,3.2378,3.2378,3.2403,3.2413,3.2428,3.245,3.2483,3.2504,3.2536,3.2597,3.26,3.2624,3.2631,3.2637,3.2642,3.2671,3.2681,3.2579,3.2579,3.2579,0,0,3.2238,3.2261,3.2286,3.2337,3.2356,3.2394,3.2366,3.2408,3.2434,3.2418,3.2468,3.248,3.2505,3.2561,3.2587,3.2572,3.2671,3.2643,3.2647,3.2649,3.2677,3.2687,3.2695,3.2582,3.2582,3.2581,0,0,3.2309,3.2332,3.2379,3.2399,3.243,3.2438,3.2449,3.2476,3.2484,3.2535,3.2522,3.2553,3.2611,3.2628,3.2644,3.2718,3.2706,3.2729,3.2765,3.2794,3.2802,3.2809,3.2832,3.2841,3.2734,3.2734,3.2734,0,3.2339,3.2399,3.2404,3.2446,3.2467,3.2457,3.2502,3.2521,3.2559,3.2572,3.2556,3.2626,3.2642,3.2701,3.2719,3.2734,3.2743,3.2724,3.2801,3.2808,3.2814,3.2836,3.2845,3.2737,3.2736,3.2736,3.2736,0,3.2432,3.2473,3.2507,3.2546,3.2571,3.2615,3.2623,3.2647,3.2644,3.2653,3.2702,3.2721,3.2755,3.2769,3.2767,3.2826,3.2816,3.2801,3.2771,3.2826,3.2847,3.2855,3.274,3.2739,3.2738,3.2738,0,0,3.252,3.2561,3.2573,3.2589,3.2621,3.2651,3.2692,3.2727,3.2746,3.2772,3.2804,3.2852,3.2838,3.2856,3.2855,3.2881,3.2934,3.2862,3.2863,3.2872,3.2997,3.3006,3.3016,3.2927,3.2929,3.2931,3.2993,0,3.259,3.2666,3.2671,3.2738,3.2773,3.2763,3.2798,3.282,3.2828,3.2857,3.2865,3.2898,3.2878,3.2889,3.2914,3.2923,3.2959,3.2919,3.2954,3.2955,3.2945,3.3027,3.3037,3.3096,3.3002,3.3003,3.3004,0,3.2682,3.2712,3.2783,3.2808,3.2823,3.2855,3.2885,3.2914,3.2937,3.2941,3.2961,3.2956,3.2995,3.2966,3.3017,3.299,3.3005,3.3011,3.3013,3.3014,3.2981,3.3027,3.3115,3.3123,3.3018,3.3016,3.3016,0,3.2734,3.2793,3.2842,3.2856,3.2887,3.2909,3.2923,3.2944,3.2964,3.2989,3.3001,3.3031,3.3046,3.3068,3.307,3.3049,3.312,3.3092,3.3121,3.3121,3.3134,3.3133,3.3223,3.3149,3.3149,3.3149,3.3149,0,3.281,3.2853,3.2865,3.2895,3.2942,3.2945,3.299,3.3001,3.302,3.3049,3.3043,3.307,3.3072,3.3099,3.3101,3.3141,3.3148,3.315,3.3149,3.3149,3.3148,3.3157,3.3151,3.3151,3.3151,3.315,3.315,0,3.2875,3.2886,3.2938,3.2963,3.297,3.3003,3.3023,3.3049,3.3057,3.3094,3.3103,3.3114,3.3145,3.315,3.3186,3.3187,3.3234,3.3231,3.3227,3.3225,3.3253,3.3249,3.3349,3.3361,3.3282,3.3283,3.3283,0,3.2922,3.2954,3.2983,3.3003,3.3018,3.305,3.307,3.3075,3.3095,3.3123,3.3145,3.3176,3.3201,3.325,3.326,3.3287,3.3282,3.3315,3.3286,3.3283,3.3278,3.3275,3.3277,3.332,3.332,3.3321,3.3322,0,3.3001,3.3005,3.3035,3.3067,3.3091,3.3116,3.3139,3.3155,3.3161,3.3184,3.3217,3.3236,3.3274,3.3303,3.3329,3.334,3.3331,3.3331,3.3339,3.3337,3.3333,3.3332,3.3239,3.3328,3.3328,3.3327,3.3327,3.3327,3.3056,3.3083,3.3107,3.314,3.3158,3.318,3.3205,3.3216,3.3245,3.3276,3.3277,3.3311,3.333,3.3365,3.3378,3.3403,3.3392,3.3404,3.3406,3.3408,3.341,3.3331,3.3408,3.3408,3.3408,3.3408,3.3408,0,3.3132,3.3147,3.3178,3.321,3.3235,3.3228,3.3252,3.3273,3.3304,3.3324,3.3349,3.3385,3.3413,3.3425,3.3452,3.3469,3.3466,3.3476,3.3473,3.3475,3.342,3.3409,3.3478,3.3478,3.3478,3.3478,3.3478,3.3478,3.3174,3.3219,3.3225,3.3277,3.3291,3.3327,3.3341,3.3359,3.3375,3.3416,3.344,3.3448,3.3464,3.3492,3.3516,3.3519,3.3527,3.3539,3.3539,3.3486,3.3479,3.3472,3.3462,3.3541,3.3542,3.3592,3.3592,3.3593]}]]